Weather Roundup
Issued by NWS

Home | Current Version | Previous Version | Graphics & Text | Print | Product List | Glossary On
Versions: 1 2 3 4 5 6 7 8 9 10 11 12 13 14 15 16 17 18 19 20 21 22 23 24 25 26 27 28 29 30 31 32 33 34 35 36 37 38 39 40 41 42 43 44 45 46 47 48 49 50
864
NZUS93 KARX 272359
HRRWXR

CURRENT HOURLY OBSERVATIONS ACROSS
MUCH OF THE UPPER MISSISSIPPI VALLEY
NATIONAL WEATHER SERVICE LA CROSSE WI
700 PM CDT TUE SEP 27 2016


...SOUTHEAST MINNESOTA...


CITY           SKY/WX    TMP DP  RH WIND       PRES   REMARKS
ROCHESTER      LGT RAIN  54  44  69 N14       29.82R
ROCHESTER/MAYO CLOUDY    52  45  76 N12G21    29.82R
WINONA         RAIN      50  46  87 NW8       29.82R
AUSTIN         CLOUDY    57  37  47 N6        29.80R
ALBERT LEA     CLOUDY    61  36  39 N9        29.80S
DODGE CENTER   LGT RAIN  54  43  66 NE14G20   29.82R
PRESTON        CLOUDY    56  37  47 N15G24    29.80R
OWATONNA       LGT RAIN  55  41  58 N14       29.82R
FARIBAULT      CLOUDY    54  45  71 N12G22    29.84R
$$

...ELSEWHERE IN MINNESOTA...


CITY           SKY/WX    TMP DP  RH WIND       PRES   REMARKS
MINNEAPOLIS    LGT RAIN  50  46  86 NW12      29.84S
INTNL FALLS    CLOUDY    50  45  83 N12       29.87R
DULUTH         CLOUDY    48  45  89 N14G24    29.78R
RED WING       LGT RAIN  52  48  87 NW6       29.82S
REDWOOD FALLS  CLOUDY    61  35  37 N9        29.84R
MANKATO        CLOUDY    59  37  44 N15       29.83R
WORTHINGTON    CLOUDY    62  42  47 NW9       29.85S
FAIRMONT       NOT AVBL
$$

...SOUTHWEST WISCONSIN...


CITY           SKY/WX    TMP DP  RH WIND       PRES   REMARKS
LA CROSSE      LGT RAIN  53  48  83 N9        29.80R
PRAIRIE DU CHI CLOUDY    63  31  30 W9        29.75S
BOSCOBEL       CLOUDY    61  40  45 N5        29.76R
LONE ROCK      NOT AVBL
PLATTEVILLE    PTCLDY    61  38  43 NW5       29.75F
FORT MC COY    LGT RAIN  49  48  97 NW6       29.80R
CAMP DOUGLAS   CLOUDY    49  46  92 W12       29.78R
MAUSTON-NEW LI RAIN      50  48  93 NW8       29.77S
VIROQUA        FAIR      52  44  75 N8        29.78R
WIS DELLS      LGT RAIN  49  46  87 NW7       29.77S
$$

...ELSEWHERE IN WISCONSIN...


CITY           SKY/WX    TMP DP  RH WIND       PRES   REMARKS
MILWAUKEE      LGT RAIN  55  47  74 NW7       29.77R
MADISON        CLOUDY    52  46  80 N13       29.77R
GREEN BAY      LGT RAIN  51  51 100 W7        29.72R
EAU CLAIRE     NOT AVBL
BLACK RVR FLS  RAIN      50  49  98 W8        29.79R
MEDFORD        CLOUDY    46  46 100 NW8       29.74R
WAUSAU         CLOUDY    49  47  93 W8        29.72R
WIS RAPIDS     LGT RAIN  49  48  97 NW7       29.76S
MARSHFIELD     LGT RAIN  49  45  86 NW9       29.75R
RICE LAKE      NOT AVBL
$$

...NORTHEAST IOWA...


CITY           SKY/WX    TMP DP  RH WIND       PRES   REMARKS
WATERLOO       MOCLDY    64  31  28 W5        29.76S
DUBUQUE        PTCLDY    61  37  41 NW3       29.77S
DECORAH        CLOUDY    59  36  41 NW9       29.77R
MASON CITY     PTCLDY    62  32  32 NW10      29.80S
CHARLES CITY   CLOUDY    63  34  34 NW8       29.78S
OELWEIN        MOCLDY    63  34  34 NW8G15    29.77S
$$

...ELSEWHERE IN IOWA...


CITY           SKY/WX    TMP DP  RH WIND       PRES   REMARKS
DES MOINES     PTCLDY    69  45  41 W7        29.81R
IOWA CITY      PTCLDY    64  42  44 W6        29.79S
FORT DODGE     PTCLDY    70  43  37 NW8       29.82S
MARSHALLTOWN   PTCLDY    65  43  44 W8        29.78S
CEDAR RAPIDS   PTCLDY    62  41  46 W7        29.77S
$$

...NORTHERN ILLINOIS...


CITY           SKY/WX    TMP DP  RH WIND       PRES   REMARKS
CHICAGO-OHARE  CLOUDY    64  33  31 W12       29.76R
CHICAGO-MIDWAY MOCLDY    66  30  26 W9        29.77R
MOLINE         PTCLDY    64  40  41 W6        29.77S
ROCKFORD       CLOUDY    62  37  39 W7        29.77S
PEORIA         CLEAR     67  38  34 W5        29.80R
$$

NOTE: "FAIR" INDICATES FEW OR NO CLOUDS BELOW 12,000 FEET WITH NO
SIGNIFICANT WEATHER AND/OR OBSTRUCTIONS TO VISIBILITY. WIND
SPEEDS ARE IN MILES-PER-HOUR.




USA.gov is the U.S. government's official web portal to all federal, state and local government web resources and services.